Starlink 6048

operational
NORAD ID: 56459 Int'l Des: 2023-064 Owner: SPXS Country: US Constellation: starlink
LEOCIRCULAR

Starlink 6048について

説明を読み込み中...

リアルタイム位置

3D地球を読み込み中...

次回通過

高度履歴

Altitude vs Time

uPlot chart will show altitude changes over time

軌道要素

1 56459U 23064M 25348.86671405 .00000387 00000-0 40229-4 0 9992
2 56459 70.0002 358.1944 0002986 273.7114 86.3704 14.98330811142535
Epoch: Dec 14, 2025 • Age: 24 hours

現在のステータス

高度 574.6 km
速度 7.57 km/s
衛星直下点 -1.61°S, 42.08°W
打ち上げ日 May 10, 2023
運用期間 2.6 years
タイプ internet

技術仕様

分類 Payload
質量 305.00 kg
乾燥質量 290.00 kg
総質量 305.00 kg
長さ 0.20 m
直径 2.80 m
スパン 9.00 m
形状 Box + pan
製造者 SPXS
バスタイプ Starlink
フェーズステータス In Orbit
所有者/国 SPXS/US

大規模コンステレーション

Loading constellations...